Showing default

COSMOS 220, 3229

Orbit data source: Space-Track

COSMOS 220, 3229 is a payload satellite owned by OKB-10 (CIS) in LEO that was launched on Tue, 07 May 1968 UTC via a KOSMOS 11K65M launch vehicle from the Plesetsk Missile And Space Complex (PKMTR). Payloads include a variety of satellites, spacecraft, and rockets equipped with specific instruments for various scientific and technological missions. These include communications satellites like Starlink; space stations such as the ISS; scientific satellites like the Hubble; Earth observation satellites from companies like Planet Labs, Umbra, and HawkEye 360; GPS; miniature CubeSats for education and research; and military/defense satellites.

Loading next visibility...
COSMOS 220 details
Identifier
3229, 1968-040A
Orbit
LEO
Last TLE update8 hours ago
Origin
Flag of CISOKB-10 (CIS)
ManufacturerOKB-10
MissionDefense Navigation
Bus & MotorKAUR-1 11F617, Unknown motor
Mass775 kg wet, 775 kg dry
Launch date (UTC)
1968-05-07 (57 years ago)
Launch vehicle
KOSMOS 11K65M
Launch site
Plesetsk Missile And Space Complex (PKMTR)
Object type
Payload
Rocket body
Debris
Shape & HBRCyl + 1 Rod, 17 m
Radar Cross Section9.978 m², Large (>1 m²)

Expand to show TLE details & history

TLE from 8 hours ago
0 COSMOS 220
1 03229U 68040A   24356.90973387  .00002220  00000-0  29961-3 0  9996
2 03229  74.0249 170.2746 0035797 215.4002 144.4798 14.79342680 10154
Epoch: 2024-12-21T21:50Z
Definitive object data (Epoch: 2024-12-21T21:50:01.006Z)
Latitude-0.00001°
Longitude111.81628°
Altitude654.519 km
Speed7.519 km/s
True Right ascension11h 21m 05s
True Declination0° 00' 00"
Sunlit
Object was in daylight at TLE epoch
Visualization TLE readout
Latitude-72.69702°
Longitude45.11999°
Altitude646.088 km
Speed7.54 km/s
Apparent Right ascension15h 17m 57s
Apparent Declination-72° 37' 05"
Sunlit
Object is in daylight
Visualization observer readout
Local Sidereal Time04:39:01
Azimuth169.385° S
Elevation-55.823°
Doppler factor1
Orbital elements
Apogee altitude654.06 km
Perigee altitude603.894 km
Semi-major axis7,007.114 km
Eccentricity0.0035797
Inclination74.0249°
RAAN170.2746°
Arg. of periapsis215.4002°
True anomaly144.71726°
Mean anomaly144.4798°
Eccentric anomaly144.59862°
Mean motion3.70028 °/min
BSTAR0.00029961
Orbital period97.29 mins
Loading maneuver chart data...
Loading historical data...
Loading historical data...
Loading historical data...
Loading historical data...
Loading historical data...
Loading historical data...
Loading historical data...
Other satellites on launch #40 in the year 1968 (1968-05-07 UTC)

COSMOS 220 Visibility forecast

Observer location: undefined°, undefined

Span
Click to sort rows by Start time (UTC) header in descending order
Start Az.
Max El. time (UTC)
Max El. Az.
Max El.
End time (UTC)
End Az.
8 mins2024-12-22 12:33:24.092Z173.908° S2024-12-22 12:37:24.092Z104.086° ESE35.189°2024-12-22 12:41:24.092Z33.516° NE
4 mins2024-12-22 14:15:24.092Z278.579° WNW2024-12-22 14:16:24.092Z294.527° NW17.37°2024-12-22 14:19:24.092Z339.106° N
6 mins2024-12-22 22:45:24.092Z1.577° NNE2024-12-22 22:47:24.092Z45.993° ENE37.211°2024-12-22 22:51:24.092Z141.965° SSE
|